Stations météo

réclame
Mon MeteoGroup
Maastricht, Pays-Bas (6380): Température de l'air & dewpoint: 09.08.2020 16:00:00 - 15.08.2020 16:00:00 (CEST)Maastricht, Pays-Bas (6380): Température de l'air 5cm: 09.08.2020 16:00:00 - 15.08.2020 16:00:00 (CEST)Maastricht, Pays-Bas (6380): Vitesse du vent & gusts: 09.08.2020 16:00:00 - 15.08.2020 16:00:00 (CEST)Maastricht, Pays-Bas (6380): Direction du vent: 09.08.2020 16:00:00 - 15.08.2020 16:00:00 (CEST)Maastricht, Pays-Bas (6380): reduced air pressure: 09.08.2020 16:00:00 - 15.08.2020 16:00:00 (CEST)Maastricht, Pays-Bas (6380): visibility: 09.08.2020 16:00:00 - 15.08.2020 16:00:00 (CEST)Maastricht, Pays-Bas (6380): Quantités de précipitations: 09.08.2020 16:00:00 - 15.08.2020 16:00:00 (CEST)
Date & Time tt [°C] td [°C] tt 5cm [°C] ff [km/h] ff [knt] fx [km/h] fx [knt] dd ppp [hPa] vv [km] rr [mm]
15.08.2020 16:00:00 - - - - - - - - - - -
15.08.2020 15:00:00 24,8 18,0 26,7 5 3 14 8 ENE 1014,7 10 0,0
15.08.2020 14:00:00 24,7 18,1 27,0 5 3 14 8 - 1015,0 8 0,0
15.08.2020 13:00:00 24,3 18,0 26,7 5 3 11 6 WNW 1015,0 8 0,0
15.08.2020 12:00:00 24,9 18,8 26,7 4 2 18 10 - 1015,1 7 0,0
15.08.2020 11:00:00 23,0 18,6 26,2 4 2 7 4 - 1015,2 6 0,0
15.08.2020 10:00:00 21,0 18,1 22,0 4 2 7 4 - 1015,2 5 0,0
15.08.2020 09:00:00 19,5 17,9 19,4 5 3 11 6 S 1015,1 7 0,0
15.08.2020 08:00:00 18,5 17,3 18,2 8 4 11 6 S 1014,9 8 0,0
15.08.2020 07:00:00 17,6 16,8 16,0 5 3 7 4 SSW 1014,6 10 0,0
15.08.2020 06:00:00 17,1 16,2 14,2 4 2 7 4 WSW 1014,2 10 0,0
15.08.2020 05:00:00 17,5 16,4 13,6 4 2 4 2 - 1014,2 10 0,0
15.08.2020 04:00:00 18,2 16,9 15,8 5 3 7 4 WNW 1014,4 8 0,0
15.08.2020 03:00:00 18,8 17,8 16,4 8 4 11 6 SSW 1014,3 6 0,0
15.08.2020 02:00:00 19,0 17,7 16,4 2 1 7 4 SW 1014,4 9 0,0
15.08.2020 01:00:00 19,8 18,1 16,9 4 2 11 6 - 1014,5 10 0,0
15.08.2020 00:00:00 20,9 18,1 19,7 5 3 14 8 NNW 1014,3 10 0,0
14.08.2020 23:00:00 22,3 18,1 21,6 5 3 14 8 NNW 1014,4 10 0,0
14.08.2020 22:00:00 23,3 17,8 22,5 8 4 14 8 NNW 1013,8 10 0,0
14.08.2020 21:00:00 24,8 17,1 24,2 8 4 14 8 NNW 1013,0 10 0,0
14.08.2020 20:00:00 26,1 16,1 26,2 8 4 22 12 NNW 1012,7 10 0,0
14.08.2020 19:00:00 27,7 15,2 28,9 11 6 25 14 W 1012,2 10 0,0
14.08.2020 18:00:00 27,5 15,2 29,6 16 9 32 18 W 1012,3 10 0,0
14.08.2020 17:00:00 27,4 15,9 29,1 13 7 29 16 WSW 1012,4 10 0,0
14.08.2020 16:00:00 27,1 17,0 28,3 15 8 36 19 SW 1012,7 10 0,0
14.08.2020 15:00:00 27,4 16,9 28,2 16 9 29 16 SW 1012,7 10 0,0
14.08.2020 14:00:00 26,9 16,4 28,6 16 9 32 18 SW 1012,9 10 0,0
14.08.2020 13:00:00 26,2 17,0 27,5 21 11 32 18 SW 1013,1 10 0,0
14.08.2020 12:00:00 25,6 16,8 27,2 22 12 32 18 SSW 1013,1 10 0,0
14.08.2020 11:00:00 25,6 17,0 27,7 22 12 36 19 SSW 1013,1 10 0,0
14.08.2020 10:00:00 23,8 16,9 25,0 24 13 32 18 SSW 1012,6 10 0,0
14.08.2020 09:00:00 21,8 16,0 21,5 13 7 22 12 S 1013,0 10 0,0
14.08.2020 08:00:00 20,5 15,7 19,5 5 3 7 4 SW 1012,9 10 0,0
14.08.2020 07:00:00 20,0 14,7 18,2 9 5 14 8 S 1012,7 10 0,0
14.08.2020 06:00:00 19,9 14,3 15,7 9 5 14 8 S 1012,4 10 0,0
14.08.2020 05:00:00 19,0 15,5 16,3 5 3 11 6 SSE 1012,1 10 0,0
14.08.2020 04:00:00 18,6 15,5 16,2 8 4 11 6 S 1012,2 10 0,0
14.08.2020 03:00:00 19,8 15,9 16,9 8 4 14 8 SSW 1012,2 10 0,0
14.08.2020 02:00:00 21,0 17,1 17,9 8 4 14 8 SSW 1012,3 10 0,0
14.08.2020 01:00:00 21,1 17,1 17,6 8 4 14 8 S 1012,5 10 0,0
14.08.2020 00:00:00 22,0 16,9 17,7 5 3 11 6 SW 1012,7 10 0,0
13.08.2020 23:00:00 21,7 16,7 18,0 2 1 7 4 - 1012,2 10 0,0
13.08.2020 22:00:00 21,8 16,3 19,5 4 2 22 12 - 1011,7 10 0,0
13.08.2020 21:00:00 22,6 17,7 21,4 2 1 18 10 - 1011,8 10 0,0
13.08.2020 20:00:00 26,0 17,6 26,7 2 1 22 12 - 1011,2 10 0,0
13.08.2020 19:00:00 24,7 18,9 25,8 15 8 32 18 WNW 1011,3 10 0,0
13.08.2020 18:00:00 30,6 17,1 30,9 13 7 22 12 SW 1010,5 10 0,0
13.08.2020 17:00:00 31,5 17,4 33,9 18 10 32 18 SSW 1010,4 10 0,0
13.08.2020 16:00:00 31,6 18,1 32,8 16 9 25 14 SW 1010,8 10 0,0
13.08.2020 15:00:00 31,9 18,1 34,1 15 8 22 12 SW 1011,1 10 0,0
13.08.2020 14:00:00 31,7 18,3 34,9 8 4 18 10 SSW 1011,0 10 0,0
13.08.2020 13:00:00 29,8 17,4 32,4 11 6 22 12 SSE 1011,2 10 0,0
13.08.2020 12:00:00 29,3 17,6 32,0 11 6 22 12 SSW 1011,5 10 0,0
13.08.2020 11:00:00 28,0 17,5 29,1 13 7 22 12 S 1011,4 10 0,0
13.08.2020 10:00:00 26,5 19,3 28,1 5 3 11 6 S 1011,5 10 0,0
13.08.2020 09:00:00 23,3 18,6 23,2 9 5 18 10 S 1011,8 10 0,0
13.08.2020 08:00:00 20,8 18,5 20,6 8 4 18 10 SE 1011,6 10 0,0
13.08.2020 07:00:00 20,1 18,3 19,6 9 5 14 8 ESE 1011,4 10 0,0
13.08.2020 06:00:00 20,3 18,1 19,8 15 8 18 10 ESE 1012,1 10 0,2
13.08.2020 05:00:00 20,6 18,2 19,7 9 5 14 8 NE 1011,9 10 0,0
13.08.2020 04:00:00 21,3 18,2 19,7 8 4 11 6 E 1011,4 10 0,0
13.08.2020 03:00:00 21,4 18,3 20,4 4 2 14 8 - 1011,0 10 0,0
13.08.2020 02:00:00 21,3 18,6 20,4 9 5 18 10 NE 1011,1 10 0,0
13.08.2020 01:00:00 23,9 17,0 22,4 5 3 18 10 ESE 1011,3 10 0,0
13.08.2020 00:00:00 22,7 18,6 21,6 8 4 11 6 SE 1012,0 10 0,0
12.08.2020 23:00:00 23,9 17,9 22,5 8 4 36 19 SE 1012,0 10 0,0
12.08.2020 22:00:00 23,6 18,4 22,5 11 6 29 16 SE 1012,4 10 0,0
12.08.2020 21:00:00 23,5 18,7 22,0 11 6 29 16 SSE 1012,0 10 0,0
12.08.2020 20:00:00 22,4 19,5 21,7 13 7 22 12 SE 1012,4 10 0,2
12.08.2020 19:00:00 21,7 19,1 21,4 18 10 22 12 S 1012,2 10 0,0
12.08.2020 18:00:00 22,9 20,3 21,4 16 9 50 27 N 1012,2 10 9,0
12.08.2020 17:00:00 27,8 18,0 29,3 22 12 40 21 ESE 1013,0 10 0,0
12.08.2020 16:00:00 33,1 17,8 37,4 11 6 22 12 NE 1012,1 10 0,0
12.08.2020 15:00:00 32,5 18,6 36,5 13 7 22 12 NE 1012,7 10 0,0
12.08.2020 14:00:00 32,4 18,4 36,1 11 6 22 12 E 1013,2 10 0,0
12.08.2020 13:00:00 31,1 17,5 35,6 9 5 22 12 SE 1013,5 10 0,0
12.08.2020 12:00:00 29,9 17,6 33,4 13 7 25 14 SE 1013,7 10 0,0
12.08.2020 11:00:00 28,1 17,7 30,5 18 10 29 16 SE 1014,0 10 0,0
12.08.2020 10:00:00 26,5 18,3 28,0 16 9 25 14 ESE 1014,2 10 0,0
12.08.2020 09:00:00 24,3 18,3 24,5 13 7 22 12 ESE 1014,3 10 0,0
12.08.2020 08:00:00 22,3 17,7 21,6 11 6 18 10 ESE 1014,2 10 0,0
12.08.2020 07:00:00 20,7 17,4 19,7 11 6 14 8 ESE 1014,2 10 0,0
12.08.2020 06:00:00 20,1 17,8 19,5 9 5 18 10 ENE 1013,8 10 0,0
12.08.2020 05:00:00 20,1 17,6 19,4 11 6 14 8 NE 1013,8 10 0,0
12.08.2020 04:00:00 21,2 16,3 19,1 8 4 18 10 ENE 1013,9 10 0,0
12.08.2020 03:00:00 22,2 16,1 21,1 11 6 32 18 ESE 1014,0 10 0,0
12.08.2020 02:00:00 22,5 17,1 21,3 16 9 32 18 SE 1013,6 10 0,0
12.08.2020 01:00:00 22,1 18,2 21,3 28 15 32 18 ESE 1014,4 10 0,1
12.08.2020 00:00:00 22,7 17,8 21,9 21 11 25 14 SE 1015,0 10 0,0
11.08.2020 23:00:00 23,2 18,8 21,9 16 9 22 12 E 1014,4 10 2,0
11.08.2020 22:00:00 25,9 17,5 24,6 8 4 11 6 N 1013,9 10 0,0
11.08.2020 21:00:00 26,7 16,9 26,1 13 7 22 12 ESE 1013,3 10 0,0
11.08.2020 20:00:00 27,9 16,8 27,2 15 8 18 10 ENE 1013,3 10 0,0
11.08.2020 19:00:00 28,5 16,8 28,0 11 6 18 10 NE 1013,2 10 0,0
11.08.2020 18:00:00 28,8 16,7 28,0 8 4 25 14 ESE 1013,4 10 0,0
11.08.2020 17:00:00 31,0 15,9 32,3 16 9 32 18 SE 1013,0 10 0,0
11.08.2020 16:00:00 33,3 15,6 35,2 5 3 18 10 - 1013,0 10 0,0
11.08.2020 15:00:00 33,6 16,1 37,2 9 5 22 12 E 1013,5 10 0,0
11.08.2020 14:00:00 33,9 16,3 38,3 15 8 25 14 E 1013,9 10 0,0
11.08.2020 13:00:00 33,1 16,1 35,3 13 7 22 12 E 1014,1 10 0,0
11.08.2020 12:00:00 32,1 17,4 36,2 11 6 18 10 ENE 1014,2 10 0,0
11.08.2020 11:00:00 29,7 17,8 32,3 8 4 18 10 NE 1014,3 10 0,0
11.08.2020 10:00:00 27,4 18,2 29,0 5 3 14 8 ENE 1014,2 10 0,0
11.08.2020 09:00:00 25,7 18,1 25,7 4 2 14 8 - 1014,1 10 0,0
11.08.2020 08:00:00 23,4 17,4 21,7 4 2 7 4 NNE 1013,8 10 0,0
11.08.2020 07:00:00 20,0 17,2 17,0 5 3 4 2 S 1013,6 10 0,0
11.08.2020 06:00:00 20,2 17,2 17,4 4 2 7 4 E 1013,5 10 0,0
11.08.2020 05:00:00 20,2 17,3 16,8 5 3 7 4 SSE 1013,5 10 0,0
11.08.2020 04:00:00 21,0 17,6 16,8 4 2 4 2 ESE 1013,9 10 0,0
11.08.2020 03:00:00 21,7 17,5 19,7 9 5 25 14 SSW 1014,0 10 0,0
11.08.2020 02:00:00 22,6 17,4 20,4 8 4 11 6 NNE 1013,7 10 0,0
11.08.2020 01:00:00 24,0 17,5 21,9 9 5 14 8 ENE 1013,9 10 0,0
11.08.2020 00:00:00 25,3 17,3 24,0 13 7 18 10 ENE 1013,7 10 0,0
10.08.2020 23:00:00 26,5 17,2 25,1 11 6 18 10 NE 1013,5 10 0,0
10.08.2020 22:00:00 27,8 17,1 26,5 15 8 22 12 NE 1013,4 10 0,0
10.08.2020 21:00:00 29,3 16,7 28,2 13 7 22 12 NE 1012,9 10 0,0
10.08.2020 20:00:00 31,7 14,0 31,7 11 6 18 10 NE 1012,5 10 0,0
10.08.2020 19:00:00 32,8 14,2 34,4 11 6 22 12 NE 1012,2 10 0,0
10.08.2020 18:00:00 33,9 14,6 36,2 13 7 22 12 NE 1012,4 10 0,0
10.08.2020 17:00:00 33,7 14,3 36,9 11 6 22 12 E 1012,8 10 0,0
10.08.2020 16:00:00 32,7 14,5 35,2 11 6 18 10 E 1013,3 10 0,0
10.08.2020 15:00:00 32,5 14,5 35,9 15 8 22 12 E 1013,6 10 0,0
10.08.2020 14:00:00 32,8 15,8 36,4 13 7 22 12 ENE 1013,6 10 0,0
10.08.2020 13:00:00 32,0 16,1 36,3 13 7 22 12 E 1013,9 10 0,0
10.08.2020 12:00:00 31,6 16,1 35,8 11 6 22 12 ENE 1013,9 10 0,0
10.08.2020 11:00:00 30,1 16,2 33,8 13 7 29 16 NE 1014,0 10 0,0
10.08.2020 10:00:00 28,2 15,4 30,5 8 4 18 10 SE 1014,2 10 0,0
10.08.2020 09:00:00 25,9 15,5 26,4 9 5 14 8 SSE 1014,2 10 0,0
10.08.2020 08:00:00 23,6 14,9 22,0 11 6 25 14 SE 1014,1 10 0,0
10.08.2020 07:00:00 21,4 15,1 19,4 11 6 40 21 ESE 1014,2 10 0,0
10.08.2020 06:00:00 20,4 15,8 18,5 11 6 18 10 ESE 1014,4 10 0,0
10.08.2020 05:00:00 19,2 16,3 15,8 4 2 11 6 - 1014,8 10 0,0
10.08.2020 04:00:00 19,3 16,6 17,4 8 4 14 8 ENE 1015,2 10 0,0
10.08.2020 03:00:00 19,2 16,6 17,9 9 5 18 10 NE 1015,3 10 0,0
10.08.2020 02:00:00 20,6 15,7 15,6 4 2 14 8 - 1014,8 10 0,0
10.08.2020 01:00:00 20,0 16,1 16,7 4 2 11 6 - 1015,0 10 0,0
10.08.2020 00:00:00 20,3 16,0 18,6 8 4 14 8 ENE 1015,1 10 0,0
09.08.2020 23:00:00 23,5 15,4 22,0 9 5 25 14 SE 1015,0 10 0,0
09.08.2020 22:00:00 24,2 15,8 23,3 15 8 25 14 SE 1015,1 10 0,0
09.08.2020 21:00:00 25,9 16,3 24,9 9 5 22 12 E 1015,0 10 0,0
09.08.2020 20:00:00 28,4 16,2 28,7 13 7 25 14 E 1015,0 10 0,0
09.08.2020 19:00:00 29,5 18,0 31,2 13 7 18 10 E 1014,7 10 0,0
09.08.2020 18:00:00 29,2 19,0 31,9 11 6 18 10 ENE 1015,2 10 0,0
09.08.2020 17:00:00 29,1 18,3 30,0 11 6 22 12 NE 1015,7 10 0,0
09.08.2020 16:00:00 25,3 20,6 25,5 9 5 14 8 S 1015,9 10 0,0

tt = Température de l'air
td = dewpoint
tt 5cm = Température de l'air 5cm
ff = Vitesse du vent
fx = gusts
dd = Direction du vent
ppp = reduced air pressure
vv = visibility
rr = Quantités de précipitations

stations d'obs. à proximité